Weather History for Akron, OH

Change the Weather History Date:

Sunday, May 5, 2013

  Actual Average (KCAK) Record (KCAK)
Temperature  
Mean Temperature 62 °F 56 °F  
Max Temperature 73 °F 66 °F 91 °F (1895)
Min Temperature 52 °F 45 °F 30 °F (1900)
Degree Days  
Heating Degree Days 2 10  
Month to date heating degree days 52  
Since 1 July heating degree days 5928  
Cooling Degree Days 0 0  
Month to date cooling degree days 0  
Year to date cooling degree days 6  
Growing Degree Days 12 (Base 50)    
Moisture  
Dew Point 33 °F    
Average Humidity 37    
Maximum Humidity 63    
Minimum Humidity 17    
Precipitation  
Precipitation 0.00 in 0.12 in 0.68 in (2003)
Month to date precipitation 0.63  
Year to date precipitation 12.08  
Snow  
Snow 0.00 in 0.00 in - ()
Month to date snowfall 0.0  
Since 1 July snowfall 47.4  
Snow Depth -    
Sea Level Pressure  
Sea Level Pressure 30.05 in    
Wind  
Wind Speed 5 mph (ESE)    
Max Wind Speed 12 mph    
Max Gust Speed 21 mph    
Visibility 10 miles    
Events      
T = Trace of Precipitation, MM = Missing Value Source: NWS Daily Summary

Daily Weather History Graph

Daily Weather History Graph

Search for Another Location

Airport:

Trip Planner

Search our weather history database for the weather conditions in past years. The results will help you decide how hot, cold, wet, or windy it might be!

Date:

Astronomy

May. 05, 2013 Rise Set
Actual Time 6:18 AM EDT 8:27 PM EDT
Civil Twilight 5:48 AM EDT 8:57 PM EDT
Nautical Twilight 5:11 AM EDT 9:34 PM EDT
Astronomical Twilight 4:30 AM EDT 10:15 PM EDT
Moon 3:50 AM EDT (5/5) 4:23 PM EDT (5/5)
Length of Visible Light 15h 09m
Length of Day
14h 08m
Waning Crescent, 18% of the Moon is Illuminated
May 5
Waning Crescent
May 9
New
May 18
First Quarter
May 25
Full
May 31
Last Quarter

Hourly Weather History & Observations

Time (EDT) Temp. Dew Point Humidity Pressure Visibility Wind Dir Wind Speed Gust Speed Precip Events Conditions
12:54 AM 60.1 °F 39.9 °F 47% 30.10 in 10.0 mi Variable 4.6 mph - N/A   Clear
1:54 AM 57.0 °F 39.9 °F 53% 30.10 in 10.0 mi Calm Calm - N/A   Clear
2:54 AM 57.0 °F 39.9 °F 53% 30.09 in 10.0 mi Variable 4.6 mph - N/A   Clear
3:54 AM 55.9 °F 39.9 °F 55% 30.09 in 10.0 mi SSE 4.6 mph - N/A   Clear
4:54 AM 55.0 °F 39.0 °F 55% 30.09 in 10.0 mi Variable 3.5 mph - N/A   Clear
5:54 AM 53.1 °F 39.9 °F 61% 30.09 in 10.0 mi Calm Calm - N/A   Clear
6:54 AM 52.0 °F 39.9 °F 63% 30.10 in 10.0 mi ENE 3.5 mph - N/A   Clear
7:54 AM 54.0 °F 39.9 °F 59% 30.10 in 10.0 mi Variable 4.6 mph - N/A   Clear
8:54 AM 55.9 °F 39.9 °F 55% 30.10 in 10.0 mi SE 5.8 mph - N/A   Clear
9:54 AM 60.1 °F 37.0 °F 42% 30.09 in 10.0 mi SE 9.2 mph 16.1 mph N/A   Clear
10:54 AM 63.0 °F 34.0 °F 34% 30.09 in 10.0 mi ESE 11.5 mph 20.7 mph N/A   Clear
11:54 AM 64.9 °F 34.0 °F 32% 30.08 in 10.0 mi Variable 4.6 mph 17.3 mph N/A   Clear
12:54 PM 66.0 °F 35.1 °F 32% 30.06 in 10.0 mi ESE 11.5 mph 17.3 mph N/A   Clear
1:54 PM 68.0 °F 33.8 °F 28% 30.05 in 10.0 mi ESE 10.4 mph - N/A   Clear
2:54 PM 70.0 °F 35.1 °F 28% 30.04 in 10.0 mi Variable 4.6 mph 20.7 mph N/A   Clear
3:54 PM 72.0 °F 30.9 °F 22% 30.01 in 10.0 mi East 8.1 mph - N/A   Clear
4:54 PM 73.0 °F 27.0 °F 18% 29.99 in 10.0 mi Variable 5.8 mph 16.1 mph N/A   Clear
5:54 PM 73.0 °F 25.0 °F 17% 29.99 in 10.0 mi SE 10.4 mph - N/A   Clear
6:54 PM 71.1 °F 24.1 °F 17% 29.99 in 10.0 mi Variable 5.8 mph - N/A   Clear
7:54 PM 69.8 °F 24.8 °F 18% 30.01 in 10.0 mi Variable 3.5 mph - N/A   Clear
8:54 PM 64.9 °F 24.1 °F 21% 30.01 in 10.0 mi ENE 3.5 mph - N/A   Clear
9:54 PM 62.1 °F 24.1 °F 23% 30.01 in 10.0 mi Calm Calm - N/A   Clear
10:54 PM 62.1 °F 21.9 °F 21% 30.01 in 10.0 mi East 5.8 mph - N/A   Clear
11:54 PM 61.0 °F 25.0 °F 25% 30.02 in 10.0 mi Variable 3.5 mph - N/A   Clear